TANUSHA-3 (43597 NORAD) Tracking and Keplerian Element Data

This shows tracking and keplerian element data for the satellite.

Feedback or suggestion? Click here.




ElementValue
Catalog43597
NameTANUSHA-3
Epoch Orbit1492
Epoch Day323.61944351
Epoch Year2018
RAAN323.1294
Inclination51.6378
Eccentricity0.0004806
Argument of Perigee53.6956
Mean Anonmoly306.4479
Mean Motion15.56440636
Decay Rate0.00013626
L11 43597U 98067PJ 18323.61944351 .00013626 00000-0 19551-3 0 9990
L22 43597 51.6378 323.1294 0004806 53.6956 306.4479 15.56440636 14925

Live tracking and technical data element details for TANUSHA-3 (NORAD 43597). TANUSHA-3 can be tracked NOW for your location showing map with azimuth and elevation plus other details from your city location.

Track the satellite on the map from your city or location and see movement details for azimuth, elevation, latitude, longitude, range, height, and movement on the map or in text.







IsCatalogInMostPopularTable: catalog: 43597, numindb: 34
Update: records affected: 1



GetName: 43597 TANUSHA-3

Hit Count: updated at: Tue, 20 Nov 2018 11:13:12 GMT